Weather History for Nashua, NH

Change the Weather History Date:

Saturday, March 8, 2014

  Actual Average Record
Temperature  
Mean Temperature 34 °F -  
Max Temperature 52 °F 40 °F 68 °F (2012)
Min Temperature 16 °F 20 °F 4 °F (1986)
Degree Days  
Heating Degree Days 31    
Moisture  
Dew Point 19 °F    
Average Humidity 58    
Maximum Humidity 84    
Minimum Humidity 33    
Precipitation  
Precipitation 0.00 in - - ()
Sea Level Pressure  
Sea Level Pressure 30.57 in    
Wind  
Wind Speed 3 mph (NNW)    
Max Wind Speed 18 mph    
Max Gust Speed 24 mph    
Visibility 10 miles    
Events      
Averages and records for this station are not official NWS values.
T = Trace of Precipitation, MM = Missing Value Source: NWS Daily Summary

Daily Weather History Graph

Daily Weather History Graph

Search for Another Location

Airport:

Trip Planner

Search our weather history database for the weather conditions in past years. The results will help you decide how hot, cold, wet, or windy it might be!

Date:

Astronomy

Mar. 08, 2014 Rise Set
Actual Time 6:10 AM EST 5:44 PM EST
Civil Twilight 5:42 AM EST 6:12 PM EST
Nautical Twilight 5:09 AM EST 6:45 PM EST
Astronomical Twilight 4:36 AM EST 7:18 PM EST
Moon 10:40 AM EST (3/8) 12:48 AM EST (3/8)
Length of Visible Light 12h 30m
Length of Day
11h 33m
First Quarter, 51% of the Moon is Illuminated
Mar 8
First Quarter
Mar 16
Full
Mar 23
Last Quarter
Mar 30
New
Apr 7
First Quarter

Hourly Weather History & Observations

Time (EST) Temp. Windchill Dew Point Humidity Pressure Visibility Wind Dir Wind Speed Gust Speed Precip Events Conditions
12:51 AM 23.0 °F - 16.2 °F 75% 30.70 in 10.0 mi Calm Calm - N/A   Clear
1:51 AM 22.1 °F - 15.1 °F 74% 30.67 in 10.0 mi Calm Calm - N/A   Clear
2:51 AM 19.0 °F - 14.0 °F 81% 30.63 in 10.0 mi Calm Calm - N/A   Clear
3:51 AM 19.0 °F - 14.0 °F 81% 30.61 in 10.0 mi Calm Calm - N/A   Clear
4:51 AM 18.1 °F 12.9 °F 13.1 °F 81% 30.60 in 10.0 mi NW 3.5 mph - N/A   Clear
5:51 AM 18.1 °F - 14.0 °F 84% 30.59 in 10.0 mi Calm Calm - N/A   Clear
6:51 AM 16.2 °F - 11.1 °F 81% 30.59 in 10.0 mi Calm Calm - N/A   Clear
7:51 AM 23.0 °F - 16.2 °F 75% 30.59 in 10.0 mi Calm Calm - N/A   Clear
8:51 AM 29.1 °F - 18.1 °F 64% 30.57 in 10.0 mi Calm Calm - N/A   Scattered Clouds
9:51 AM 34.9 °F - 19.0 °F 52% 30.55 in 10.0 mi Calm Calm - N/A   Scattered Clouds
10:51 AM 43.0 °F - 23.0 °F 45% 30.53 in 10.0 mi Calm Calm - N/A   Mostly Cloudy
11:51 AM 46.9 °F - 22.1 °F 38% 30.50 in 10.0 mi Variable 4.6 mph - N/A   Mostly Cloudy
12:51 PM 50.0 °F - 22.1 °F 33% 30.46 in 10.0 mi NW 8.1 mph - N/A   Clear
1:51 PM 52.0 °F - 24.1 °F 34% 30.44 in 10.0 mi NW 4.6 mph - N/A   Clear
2:51 PM 50.9 °F - 23.0 °F 34% 30.45 in 10.0 mi NNW 9.2 mph - N/A   Scattered Clouds
3:51 PM 50.9 °F - 25.2 °F 37% 30.46 in 10.0 mi NNW 18.4 mph 24.2 mph N/A   Mostly Cloudy
4:51 PM 46.9 °F - 23.0 °F 39% 30.50 in 10.0 mi North 9.2 mph 18.4 mph N/A   Mostly Cloudy
5:51 PM 43.0 °F 37.7 °F 24.1 °F 47% 30.54 in 10.0 mi North 9.2 mph 16.1 mph N/A   Mostly Cloudy
6:51 PM 39.9 °F 32.9 °F 26.1 °F 58% 30.57 in 10.0 mi North 11.5 mph 20.7 mph N/A   Mostly Cloudy
7:51 PM 37.9 °F 30.9 °F 24.1 °F 57% 30.60 in 10.0 mi NNE 10.4 mph 18.4 mph N/A   Scattered Clouds
8:51 PM 36.0 °F 31.1 °F 24.1 °F 62% 30.62 in 10.0 mi NW 5.8 mph - N/A   Partly Cloudy
9:51 PM 34.9 °F 26.2 °F 22.1 °F 60% 30.61 in 10.0 mi North 12.7 mph - N/A   Clear
10:51 PM 32.9 °F 25.3 °F 15.1 °F 48% 30.63 in 10.0 mi NNW 9.2 mph - N/A   Clear
11:51 PM 32.0 °F 22.5 °F 13.1 °F 46% 30.63 in 10.0 mi NNW 12.7 mph 20.7 mph N/A   Clear